Arcata, CA

1:46 AM PST on February 22, 2018 (GMT -0800)
Arcata

Weather History for KACV - November, 2013

Change the Weather History Date:

Friday, November 15, 2013

  Actual Average Record
Temperature  
Mean Temperature 46 °F -  
Max Temperature 55 °F 56 °F 70 °F (1999)
Min Temperature 37 °F 42 °F 36 °F (2015)
Degree Days  
Heating Degree Days 19    
Moisture  
Dew Point 39 °F    
Average Humidity 85    
Maximum Humidity 97    
Minimum Humidity 57    
Precipitation  
Precipitation 0.00 in - - ()
Sea Level Pressure  
Sea Level Pressure 29.99 in    
Wind  
Wind Speed 3 mph (NE)    
Max Wind Speed 16 mph    
Max Gust Speed -    
Visibility 7 miles    
Events      
Averages and records for this station are not official NWS values.
T = Trace of Precipitation, MM = Missing Value Source: NWS Daily Summary

Daily Weather History Graph

Daily Weather History Graph

Search for Another Location

Airport or City:

Trip Planner

Search our weather history database for the weather conditions in past years. The results will help you decide how hot, cold, wet, or windy it might be!

Date:

Astronomy

Nov. 15, 2013 Rise Set
Actual Time 7:04 AM PST 4:57 PM PST
Civil Twilight 6:34 AM PST 5:27 PM PST
Nautical Twilight 6:01 AM PST 6:00 PM PST
Astronomical Twilight 5:28 AM PST 6:32 PM PST
Moon 3:58 PM PST (11/15) 5:05 AM PST (11/15)
Length of Visible Light 10h 52m
Length of Day
9h 53m
Waxing Gibbous, 97% of the Moon is Illuminated
Nov 15
Waxing Gibbous
Nov 17
Full
Nov 25
Last Quarter
Dec 2
New
Dec 9
First Quarter

Hourly Weather History & Observations

Time (PST) Temp. Windchill Dew Point Humidity Pressure Visibility Wind Dir Wind Speed Gust Speed Precip Events Conditions
12:01 AM 41.0 °F - 39.9 °F 96% 30.04 in 1.8 mi Calm Calm - N/A   Clear
12:19 AM 42.1 °F 40.2 °F 39.9 °F 92% 30.04 in 2.5 mi ENE 3.5 mph - N/A   Clear
12:28 AM 42.1 °F 40.2 °F 39.9 °F 92% 30.03 in 4.0 mi ENE 3.5 mph - N/A   Clear
12:53 AM 42.1 °F 40.2 °F 39.9 °F 92% 30.05 in 7.0 mi East 3.5 mph - N/A   Clear
1:37 AM 41.0 °F - 37.9 °F 89% 30.02 in 2.5 mi Calm Calm - N/A   Clear
1:45 AM 39.9 °F - 39.0 °F 97% 30.02 in 7.0 mi Calm Calm - N/A   Clear
1:53 AM 41.0 °F - 39.0 °F 93% 30.04 in 5.0 mi Calm Calm - N/A   Clear
2:12 AM 41.0 °F 39.0 °F 39.0 °F 93% 30.01 in 8.0 mi ENE 3.5 mph - N/A   Mostly Cloudy
2:24 AM 41.0 °F - 39.0 °F 93% 30.01 in 6.0 mi Calm Calm - N/A   Scattered Clouds
2:53 AM 41.0 °F - 39.0 °F 93% 30.03 in 8.0 mi Calm Calm - N/A   Scattered Clouds
3:53 AM 39.0 °F - 37.0 °F 93% 30.03 in 7.0 mi Calm Calm - N/A   Clear
4:53 AM 37.9 °F 35.5 °F 37.0 °F 97% 30.03 in 8.0 mi East 3.5 mph - N/A   Clear
5:53 AM 37.9 °F 34.4 °F 36.0 °F 93% 30.03 in 4.0 mi East 4.6 mph - N/A   Clear
6:53 AM 37.0 °F - 35.1 °F 93% 30.02 in 3.0 mi Calm Calm - N/A   Clear
7:03 AM 37.0 °F - 36.0 °F 96% 30.01 in 2.0 mi Calm Calm - N/A   Clear
7:12 AM 37.0 °F 34.5 °F 35.1 °F 93% 30.00 in 1.2 mi East 3.5 mph - N/A   Clear
7:32 AM 37.9 °F - 36.0 °F 93% 30.01 in 2.5 mi Calm Calm - N/A   Clear
7:53 AM 39.0 °F 36.8 °F 37.0 °F 93% 30.04 in 3.0 mi East 3.5 mph - N/A   Clear
7:57 AM 39.0 °F - 37.9 °F 96% 30.01 in 1.8 mi Calm Calm - N/A   Clear
8:14 AM 41.0 °F 38.0 °F 39.0 °F 93% 30.00 in 3.0 mi East 4.6 mph - N/A   Clear
8:53 AM 46.9 °F - 43.0 °F 86% 30.01 in 10.0 mi NE 3.5 mph - N/A   Clear
9:53 AM 51.1 °F - 44.1 °F 77% 30.00 in 10.0 mi North 3.5 mph - N/A   Clear
10:53 AM 53.1 °F - 43.0 °F 69% 29.99 in 10.0 mi NNW 13.8 mph - N/A   Clear
11:53 AM 55.0 °F - 39.9 °F 57% 29.96 in 10.0 mi NNW 15.0 mph - N/A   Clear
12:53 PM 55.9 °F - 41.0 °F 57% 29.93 in 10.0 mi NNW 12.7 mph - N/A   Clear
1:53 PM 55.9 °F - 42.1 °F 60% 29.93 in 10.0 mi NNW 13.8 mph - N/A   Clear
2:53 PM 54.0 °F - 42.1 °F 64% 29.92 in 10.0 mi North 16.1 mph - N/A   Clear
3:53 PM 52.0 °F - 41.0 °F 66% 29.91 in 10.0 mi North 8.1 mph - N/A   Clear
4:53 PM 50.0 °F - 42.1 °F 74% 29.94 in 10.0 mi North 13.8 mph - N/A   Clear
5:53 PM 48.9 °F - 41.0 °F 74% 29.93 in 10.0 mi North 4.6 mph - N/A   Clear
6:53 PM 48.9 °F - 42.1 °F 77% 29.94 in 10.0 mi North 13.8 mph - N/A   Clear
7:53 PM 48.9 °F - 42.1 °F 77% 29.93 in 10.0 mi North 9.2 mph - N/A   Clear
8:53 PM 45.0 °F - 39.9 °F 82% 29.92 in 10.0 mi Calm Calm - N/A   Clear
9:53 PM 43.0 °F 40.3 °F 39.0 °F 86% 29.93 in 10.0 mi ESE 4.6 mph - N/A   Clear
10:53 PM 43.0 °F 41.3 °F 39.9 °F 89% 29.94 in 10.0 mi East 3.5 mph - N/A   Mostly Cloudy
11:53 PM 44.1 °F 42.5 °F 41.0 °F 89% 29.93 in 10.0 mi ESE 3.5 mph - N/A   Overcast